FW5359 Weather Reports


Display with metric or nautical units.
time (UTC)temp
F
wind
direction
speed
MPH
gust
MPH
rain 1hr
in
rain 24hr
in
rain mn
in
humidity
%
barometer
mb
20220703180431 90 153 3.0 11.0 0.00 0.00 0.00 58 974.3
20220703175925 89 177 3.0 11.0 0.00 0.00 0.00 61 974.3
20220703175420 89 105 3.0 8.0 0.00 0.00 0.00 61 974.4
20220703174913 88 110 2.0 8.0 0.00 0.00 0.00 61 974.4
20220703174408 87 292 3.0 9.0 0.00 0.00 0.00 62 974.4
20220703173902 87 273 3.0 9.0 0.00 0.00 0.00 62 974.5
20220703173356 87 163 3.0 11.0 0.00 0.00 0.00 62 974.6
20220703172850 87 222 3.0 11.0 0.00 0.00 0.00 62 974.6
20220703172344 87 95 3.0 10.0 0.00 0.00 0.00 63 974.6
20220703171838 87 73 3.0 9.0 0.00 0.00 0.00 64 974.6
20220703171331 87 133 3.0 12.0 0.00 0.00 0.00 64 974.7
20220703170827 86 190 3.0 12.0 0.00 0.00 0.00 65 974.7
20220703170320 87 178 2.0 10.0 0.00 0.00 0.00 65 974.8
20220703165815 87 217 2.0 7.0 0.00 0.00 0.00 64 974.8
20220703165309 86 150 2.0 6.0 0.00 0.00 0.00 66 974.8
20220703164802 86 173 3.0 10.0 0.00 0.00 0.00 66 974.8
20220703164257 86 126 3.0 10.0 0.00 0.00 0.00 66 974.9
20220703163750 86 180 3.0 9.0 0.00 0.00 0.00 66 974.9
20220703163244 86 166 3.0 10.0 0.00 0.00 0.00 67 974.8
20220703162738 85 158 4.0 11.0 0.00 0.00 0.00 68 974.9
20220703162231 85 147 3.0 12.0 0.00 0.00 0.00 68 974.9
20220703161726 86 129 2.0 12.0 0.00 0.00 0.00 68 974.8
20220703161220 85 42 2.0 8.0 0.00 0.00 0.00 68 974.8
20220703160714 85 240 4.0 11.0 0.00 0.00 0.00 69 974.8
20220703160208 85 103 4.0 11.0 0.00 0.00 0.00 69 974.9
20220703155703 86 118 3.0 11.0 0.00 0.00 0.00 69 974.9
20220703155202 85 148 3.0 11.0 0.00 0.00 0.00 69 974.9
20220703154700 85 166 3.0 9.0 0.00 0.00 0.00 71 974.8
20220703154200 84 173 4.0 12.0 0.00 0.00 0.00 72 974.9
20220703153700 84 215 3.0 12.0 0.00 0.00 0.00 71 974.9
20220703153200 84 188 3.0 9.0 0.00 0.00 0.00 73 974.8
20220703152700 84 220 3.0 9.0 0.00 0.00 0.00 72 974.8
20220703152203 84 240 3.0 8.0 0.00 0.00 0.00 73 974.9
20220703151656 83 169 3.0 8.0 0.00 0.00 0.00 73 974.9
20220703151156 83 142 2.0 8.0 0.00 0.00 0.00 76 974.9
20220703150657 83 155 3.0 7.0 0.00 0.00 0.00 76 974.8
20220703150155 82 248 3.0 8.0 0.00 0.00 0.00 77 974.7
20220703145655 82 142 2.0 8.0 0.00 0.00 0.00 77 974.9
20220703145154 82 166 2.0 7.0 0.00 0.00 0.00 78 974.9
20220703144654 81 150 2.0 12.0 0.00 0.00 0.00 79 974.9
20220703144155 81 190 2.0 12.0 0.00 0.00 0.00 80 974.9
20220703143654 81 154 3.0 8.0 0.00 0.00 0.00 80 974.9
20220703143154 81 159 3.0 9.0 0.00 0.00 0.00 80 974.8
20220703142656 80 153 3.0 9.0 0.00 0.00 0.00 81 974.7
20220703142153 80 202 3.0 8.0 0.00 0.00 0.00 81 974.7
20220703141652 80 169 3.0 8.0 0.00 0.00 0.00 81 974.7
20220703141150 80 239 2.0 7.0 0.00 0.00 0.00 81 974.6
20220703140650 80 190 2.0 10.0 0.00 0.00 0.00 82 974.5
20220703140149 80 102 3.0 10.0 0.00 0.00 0.00 82 974.4
20220703135648 80 139 3.0 10.0 0.00 0.00 0.00 82 974.4
20220703135148 80 109 3.0 10.0 0.00 0.00 0.00 82 974.3
20220703134648 80 211 3.0 10.0 0.00 0.00 0.00 83 974.3
20220703134146 79 134 3.0 10.0 0.00 0.00 0.00 84 974.2
20220703133644 79 150 2.0 9.0 0.00 0.00 0.00 84 974.2
20220703133142 79 158 3.0 9.0 0.00 0.00 0.00 84 974.1
20220703132639 79 209 3.0 8.0 0.00 0.00 0.00 84 974.0
20220703132140 79 165 3.0 8.0 0.00 0.00 0.00 84 974.0
20220703131639 80 136 3.0 10.0 0.00 0.00 0.00 83 973.9
20220703131141 80 137 3.0 10.0 0.00 0.00 0.00 84 973.9
20220703130640 79 176 3.0 9.0 0.00 0.00 0.00 85 973.7
20220703130140 78 98 3.0 9.0 0.00 0.00 0.00 86 973.7
20220703125641 78 146 2.0 8.0 0.00 0.00 0.00 87 973.7
20220703125143 78 148 1.0 4.0 0.00 0.00 0.00 87 973.6
20220703124642 78 135 1.0 7.0 0.00 0.00 0.00 87 973.6
20220703124143 77 136 2.0 7.0 0.00 0.00 0.00 87 973.6
20220703123644 77 160 2.0 7.0 0.00 0.00 0.00 87 973.6
20220703123140 77 144 2.0 7.0 0.00 0.00 0.00 87 973.6
20220703122639 77 148 2.0 5.0 0.00 0.00 0.00 87 973.7
20220703122139 77 165 2.0 7.0 0.00 0.00 0.00 87 973.7
20220703121639 77 163 2.0 7.0 0.00 0.00 0.00 87 973.6
20220703121140 77 171 2.0 7.0 0.00 0.00 0.00 88 973.7
20220703120639 77 207 2.0 7.0 0.00 0.00 0.00 88 973.7
20220703120139 77 169 2.0 6.0 0.00 0.00 0.00 88 973.7
20220703115639 77 178 3.0 7.0 0.00 0.00 0.00 88 973.7
20220703115137 77 144 3.0 7.0 0.00 0.00 0.00 88 973.7
20220703114638 77 177 2.0 7.0 0.00 0.00 0.00 88 973.8
20220703114138 77 157 2.0 7.0 0.00 0.00 0.00 88 973.8
20220703113638 77 226 2.0 7.0 0.00 0.00 0.00 88 973.8
20220703113137 77 149 1.0 5.0 0.00 0.00 0.00 88 973.8
20220703112636 77 171 1.0 5.0 0.00 0.00 0.00 88 973.6
20220703112135 77 180 2.0 5.0 0.00 0.00 0.00 88 973.6
20220703111628 77 165 2.0 5.0 0.00 0.00 0.00 88 973.6
20220703111121 77 161 2.0 5.0 0.00 0.00 0.00 89 973.6
20220703110615 77 173 1.0 5.0 0.00 0.00 0.00 89 973.6
20220703110109 77 132 1.0 5.0 0.00 0.00 0.00 88 973.6
20220703105604 77 190 1.0 7.0 0.00 0.00 0.00 88 973.5
20220703105056 77 187 2.0 7.0 0.00 0.00 0.00 88 973.4
20220703104551 77 163 2.0 7.0 0.00 0.00 0.00 88 973.3
20220703104045 77 151 2.0 7.0 0.00 0.00 0.00 88 973.2
20220703103539 77 167 1.0 5.0 0.00 0.00 0.00 88 973.1
20220703103033 77 165 1.0 5.0 0.00 0.00 0.00 88 973.1
20220703102526 77 162 1.0 6.0 0.00 0.00 0.00 88 973.1
20220703102021 77 163 1.0 7.0 0.00 0.00 0.00 88 973.0
20220703101515 77 169 1.0 7.0 0.00 0.00 0.00 88 972.9
20220703101009 77 167 2.0 5.0 0.00 0.00 0.00 88 972.8
20220703100503 78 160 1.0 5.0 0.00 0.00 0.00 87 972.8
20220703095957 78 176 1.0 6.0 0.00 0.00 0.00 87 973.0
20220703095451 78 166 2.0 6.0 0.00 0.00 0.00 87 973.1
20220703094945 78 155 1.0 5.0 0.00 0.00 0.00 87 973.1
20220703094439 78 184 2.0 6.0 0.00 0.00 0.00 87 973.1
20220703093934 78 141 2.0 9.0 0.00 0.00 0.00 87 972.9
20220703093427 78 169 2.0 9.0 0.00 0.00 0.00 87 972.9
20220703092921 78 175 2.0 5.0 0.00 0.00 0.00 87 972.9
20220703092416 78 160 2.0 7.0 0.00 0.00 0.00 86 973.1
20220703091910 78 154 2.0 6.0 0.00 0.00 0.00 86 973.1
20220703091402 78 196 2.0 6.0 0.00 0.00 0.00 86 973.1
20220703090857 78 202 2.0 7.0 0.00 0.00 0.00 86 973.2
20220703090351 78 169 2.0 7.0 0.00 0.00 0.00 86 973.1
20220703085845 78 161 2.0 10.0 0.00 0.00 0.00 86 973.2
20220703085339 78 145 2.0 10.0 0.00 0.00 0.00 86 973.3
20220703084833 78 236 1.0 6.0 0.00 0.00 0.00 85 973.5
20220703084327 78 188 2.0 5.0 0.00 0.00 0.00 85 973.5
20220703083822 78 204 3.0 8.0 0.00 0.00 0.00 85 973.5
20220703083315 78 171 3.0 10.0 0.00 0.00 0.00 85 973.6
20220703082809 78 177 3.0 10.0 0.00 0.00 0.00 85 973.6
20220703082303 78 174 3.0 10.0 0.00 0.00 0.00 85 973.5
20220703081757 78 159 2.0 10.0 0.00 0.00 0.00 85 973.5
20220703081251 79 155 2.0 6.0 0.00 0.00 0.00 84 973.6
20220703080745 79 129 2.0 9.0 0.00 0.00 0.00 84 973.4
20220703080239 79 184 2.0 9.0 0.00 0.00 0.00 84 973.5
20220703075733 79 237 2.0 8.0 0.00 0.00 0.00 84 973.6
20220703075227 79 201 1.0 8.0 0.00 0.00 0.00 84 973.5
20220703074721 79 140 2.0 8.0 0.00 0.00 0.00 84 973.5
20220703074215 79 167 2.0 8.0 0.00 0.00 0.00 84 973.4
20220703073709 79 191 2.0 8.0 0.00 0.00 0.00 84 973.4
20220703073203 79 211 3.0 9.0 0.00 0.00 0.00 84 973.4
20220703072657 79 211 3.0 9.0 0.00 0.00 0.00 85 973.3
20220703072152 79 225 3.0 9.0 0.00 0.00 0.00 85 973.3
20220703071645 79 206 3.0 9.0 0.00 0.00 0.00 85 973.3
20220703071139 79 207 3.0 9.0 0.00 0.00 0.00 85 973.1
20220703070633 79 184 2.0 9.0 0.00 0.00 0.00 85 973.2
20220703070127 79 128 3.0 10.0 0.00 0.00 0.00 85 973.0
20220703065627 79 169 2.0 10.0 0.00 0.00 0.00 85 972.9
20220703065127 79 156 2.0 8.0 0.00 0.00 0.00 85 973.1
20220703064627 79 191 3.0 10.0 0.00 0.00 0.00 84 973.0
20220703064127 79 205 4.0 10.0 0.00 0.00 0.00 84 972.9
20220703063627 80 162 4.0 12.0 0.00 0.00 0.00 84 973.1
20220703063130 80 237 4.0 12.0 0.00 0.00 0.00 84 973.0
20220703062627 80 174 4.0 12.0 0.00 0.00 0.00 84 972.9
20220703062128 80 155 5.0 12.0 0.00 0.00 0.00 84 972.8
20220703061627 80 172 4.0 12.0 0.00 0.00 0.00 84 972.8
20220703061125 80 90 2.0 10.0 0.00 0.00 0.00 83 972.7
20220703060628 80 157 2.0 7.0 0.00 0.00 0.00 83 972.8
20220703060122 80 126 3.0 8.0 0.00 0.00 0.00 83 972.7
20220703055624 80 146 2.0 9.0 0.00 0.00 0.00 83 972.6
20220703055122 80 140 2.0 9.0 0.00 0.00 0.00 83 972.4
20220703054624 80 109 2.0 9.0 0.00 0.00 0.00 83 972.4
20220703054120 81 123 3.0 8.0 0.00 0.00 0.00 83 972.4
20220703053619 81 91 4.0 10.0 0.00 0.00 0.00 83 972.2
20220703053118 81 142 3.0 10.0 0.00 0.00 0.00 82 972.2
20220703052619 81 160 3.0 11.0 0.00 0.00 0.00 82 972.2
20220703052119 81 142 3.0 11.0 0.00 0.00 0.00 82 972.2
20220703051619 81 135 3.0 8.0 0.00 0.00 0.00 82 972.1
20220703051119 81 122 4.0 11.0 0.00 0.00 0.00 82 972.1
20220703050619 81 150 3.0 11.0 0.00 0.00 0.00 82 972.0
20220703050119 82 130 2.0 10.0 0.00 0.00 0.00 81 972.0
20220703045611 82 150 2.0 7.0 0.00 0.00 0.00 81 971.8
20220703045105 82 138 3.0 10.0 0.00 0.00 0.00 81 971.8
20220703044601 82 191 3.0 11.0 0.00 0.00 0.00 81 971.9
20220703044054 82 88 3.0 11.0 0.00 0.00 0.00 80 971.9
20220703043548 82 147 2.0 10.0 0.00 0.00 0.00 80 971.8
20220703043042 82 129 3.0 8.0 0.00 0.00 0.00 80 971.8
20220703042536 83 130 3.0 8.0 0.00 0.00 0.00 79 971.7
20220703042030 83 155 3.0 10.0 0.00 0.00 0.00 79 971.7
20220703041524 83 155 4.0 14.0 0.00 0.00 0.00 78 971.7
20220703041018 83 168 4.0 14.0 0.00 0.00 0.00 78 971.6
20220703040512 83 143 4.0 11.0 0.00 0.00 0.00 77 971.5
20220703040006 83 117 4.0 11.0 0.00 0.00 0.00 76 971.5
20220703035500 84 134 3.0 8.0 0.00 0.00 0.00 74 971.4
20220703034955 84 155 3.0 8.0 0.00 0.00 0.00 74 971.5
20220703034448 84 171 4.0 13.0 0.00 0.00 0.00 74 971.5
20220703033942 84 135 5.0 13.0 0.00 0.00 0.00 73 971.4
20220703033436 84 169 4.0 12.0 0.00 0.00 0.00 73 971.3
20220703032931 84 171 3.0 12.0 0.00 0.00 0.00 73 971.4
20220703032424 84 125 3.0 8.0 0.00 0.00 0.00 71 971.1
20220703031918 84 177 3.0 8.0 0.00 0.00 0.00 71 971.0
20220703031412 84 103 2.0 8.0 0.00 0.00 0.00 70 970.9
20220703030905 84 106 2.0 8.0 0.00 0.00 0.00 70 970.8
20220703030400 84 110 2.0 6.0 0.00 0.00 0.00 70 970.8
20220703025854 84 143 2.0 7.0 0.00 0.00 0.00 69 970.6
20220703025348 85 141 3.0 9.0 0.00 0.00 0.00 69 970.6
20220703024845 85 187 3.0 9.0 0.00 0.00 0.00 68 970.4
20220703024344 85 157 3.0 10.0 0.00 0.00 0.00 67 970.4
20220703023843 85 183 4.0 10.0 0.00 0.00 0.00 66 970.4
20220703023344 86 152 4.0 13.0 0.00 0.00 0.00 65 970.3
20220703022844 86 221 4.0 13.0 0.00 0.00 0.00 65 970.2
20220703022344 87 222 4.0 12.0 0.00 0.00 0.00 64 970.1
20220703021844 87 109 4.0 14.0 0.00 0.00 0.00 62 970.0
20220703021344 88 98 5.0 17.0 0.00 0.00 0.00 60 969.8
20220703020844 89 82 5.0 17.0 0.00 0.00 0.00 59 969.7
20220703020344 89 149 4.0 16.0 0.00 0.00 0.00 57 969.5
20220703015845 90 103 4.0 16.0 0.00 0.00 0.00 56 969.6
20220703015344 90 161 5.0 14.0 0.00 0.00 0.00 55 969.4
20220703014840 91 173 5.0 11.0 0.00 0.00 0.00 54 969.4
20220703014339 91 134 4.0 11.0 0.00 0.00 0.00 53 969.4
20220703013840 92 176 3.0 11.0 0.00 0.00 0.00 52 969.2
20220703013339 92 184 3.0 10.0 0.00 0.00 0.00 50 968.9
20220703012840 93 148 3.0 9.0 0.00 0.00 0.00 49 968.9
20220703012339 93 206 3.0 9.0 0.00 0.00 0.00 48 968.6
20220703011840 93 131 2.0 8.0 0.00 0.00 0.00 48 968.5
20220703011340 93 102 2.0 10.0 0.00 0.00 0.00 47 968.6
20220703010841 94 134 2.0 10.0 0.00 0.00 0.00 47 968.5
20220703010334 94 109 2.0 7.0 0.00 0.00 0.00 46 968.6
20220703005833 94 178 2.0 8.0 0.00 0.00 0.00 45 968.5
20220703005333 94 105 2.0 8.0 0.00 0.00 0.00 44 968.4
20220703004833 94 155 2.0 8.0 0.00 0.00 0.00 44 968.3
20220703004333 95 137 3.0 14.0 0.00 0.00 0.00 44 968.2
20220703003834 95 119 3.0 14.0 0.00 0.00 0.00 44 968.1
20220703003334 95 148 3.0 8.0 0.00 0.00 0.00 43 968.0
20220703002834 95 170 3.0 10.0 0.00 0.00 0.00 43 968.0
20220703002338 95 169 3.0 11.0 0.00 0.00 0.00 43 968.0
20220703001852 96 213 3.0 11.0 0.00 0.00 0.00 42 968.0
20220703001334 96 184 3.0 10.0 0.00 0.00 0.00 43 968.1
20220703000834 96 156 2.0 10.0 0.00 0.00 0.00 43 968.1
20220703000334 96 105 2.0 10.0 0.00 0.00 0.00 43 968.1
20220702235826 96 98 3.0 8.0 0.00 0.00 0.00 42 968.2
20220702235319 96 196 3.0 12.0 0.00 0.00 0.00 43 968.1
20220702234813 97 202 3.0 12.0 0.00 0.00 0.00 42 968.2
20220702234306 97 108 4.0 10.0 0.00 0.00 0.00 43 968.0
20220702233801 97 174 3.0 10.0 0.00 0.00 0.00 42 968.1
20220702233254 97 74 3.0 9.0 0.00 0.00 0.00 41 968.1
20220702232749 96 152 3.0 7.0 0.00 0.00 0.00 42 968.1
20220702232244 97 157 4.0 10.0 0.00 0.00 0.00 41 968.2
20220702231738 97 167 4.0 10.0 0.00 0.00 0.00 39 968.3
20220702231230 97 200 3.0 11.0 0.00 0.00 0.00 40 968.3
20220702230725 97 121 3.0 11.0 0.00 0.00 0.00 41 968.3
20220702230219 96 123 4.0 10.0 0.00 0.00 0.00 41 968.4
20220702225713 97 139 4.0 9.0 0.00 0.00 0.00 41 968.5
20220702225207 97 125 4.0 8.0 0.00 0.00 0.00 42 968.5
20220702224702 97 151 3.0 9.0 0.00 0.00 0.00 41 968.6
20220702224155 98 246 3.0 9.0 0.00 0.00 0.00 41 968.7
20220702223649 98 168 3.0 9.0 0.00 0.00 0.00 40 968.7
20220702223143 98 253 4.0 11.0 0.00 0.00 0.00 40 968.9
20220702222638 98 229 4.0 11.0 0.00 0.00 0.00 40 969.0
20220702222131 98 119 3.0 9.0 0.00 0.00 0.00 40 969.0
20220702221626 98 128 3.0 9.0 0.00 0.00 0.00 41 969.0
20220702221119 98 60 3.0 9.0 0.00 0.00 0.00 42 968.9
20220702220614 98 134 3.0 9.0 0.00 0.00 0.00 41 969.1
20220702220108 98 132 2.0 9.0 0.00 0.00 0.00 40 969.1
20220702215601 98 155 2.0 9.0 0.00 0.00 0.00 40 969.1
20220702215055 97 177 2.0 9.0 0.00 0.00 0.00 43 969.1
20220702214549 96 227 3.0 10.0 0.00 0.00 0.00 44 969.1
20220702214043 96 195 2.0 10.0 0.00 0.00 0.00 43 969.2
20220702213538 97 117 2.0 6.0 0.00 0.00 0.00 42 969.3
20220702213031 96 101 3.0 11.0 0.00 0.00 0.00 42 969.3
20220702212525 96 192 2.0 11.0 0.00 0.00 0.00 42 969.4
20220702212019 96 172 2.0 7.0 0.00 0.00 0.00 43 969.5
20220702211513 96 94 3.0 9.0 0.00 0.00 0.00 44 969.5
20220702211006 98 111 3.0 10.0 0.00 0.00 0.00 42 969.5
20220702210502 98 177 2.0 10.0 0.00 0.00 0.00 42 969.5
20220702205955 98 221 3.0 8.0 0.00 0.00 0.00 41 969.5
20220702205450 98 202 3.0 9.0 0.00 0.00 0.00 41 969.6
20220702204943 97 166 4.0 12.0 0.00 0.00 0.00 42 969.7
20220702204437 97 94 4.0 12.0 0.00 0.00 0.00 42 969.7
20220702203931 97 180 3.0 10.0 0.00 0.00 0.00 43 969.8
20220702203430 97 93 3.0 9.0 0.00 0.00 0.00 44 969.8
20220702202929 97 138 3.0 10.0 0.00 0.00 0.00 41 969.9
20220702202429 98 91 2.0 10.0 0.00 0.00 0.00 41 969.9
20220702201929 98 202 2.0 9.0 0.00 0.00 0.00 42 970.0
20220702201427 97 134 3.0 7.0 0.00 0.00 0.00 42 969.9
20220702200927 96 126 3.0 8.0 0.00 0.00 0.00 44 969.9
20220702200430 96 128 4.0 9.0 0.00 0.00 0.00 43 970.1
20220702195925 96 145 4.0 10.0 0.00 0.00 0.00 44 970.1
20220702195425 96 153 4.0 10.0 0.00 0.00 0.00 45 970.2
20220702194925 96 114 4.0 10.0 0.00 0.00 0.00 46 970.3
20220702194425 96 80 3.0 8.0 0.00 0.00 0.00 45 970.3
20220702193924 96 82 2.0 7.0 0.00 0.00 0.00 47 970.3
20220702193425 96 182 3.0 10.0 0.00 0.00 0.00 48 970.4
20220702192924 96 68 3.0 10.0 0.00 0.00 0.00 47 970.5
20220702192423 95 5 3.0 6.0 0.00 0.00 0.00 47 970.6
20220702191923 94 144 3.0 9.0 0.00 0.00 0.00 48 970.8
20220702191423 94 119 3.0 9.0 0.00 0.00 0.00 49 970.7
20220702190923 94 86 3.0 9.0 0.00 0.00 0.00 50 970.7
20220702190421 95 94 3.0 9.0 0.00 0.00 0.00 50 971.0
20220702185920 95 126 3.0 9.0 0.00 0.00 0.00 47 971.0
20220702185421 94 215 3.0 9.0 0.00 0.00 0.00 49 971.1
20220702184923 94 219 2.0 7.0 0.00 0.00 0.00 49 971.1
20220702184424 94 212 3.0 10.0 0.00 0.00 0.00 49 971.3
20220702183922 93 213 3.0 10.0 0.00 0.00 0.00 48 971.5
20220702183422 93 108 2.0 11.0 0.00 0.00 0.00 51 971.5
20220702182923 93 123 3.0 11.0 0.00 0.00 0.00 53 971.5
20220702182422 93 174 4.0 11.0 0.00 0.00 0.00 52 971.6
20220702181920 92 88 3.0 9.0 0.00 0.00 0.00 53 971.7
20220702181422 92 223 2.0 9.0 0.00 0.00 0.00 54 971.6
20220702180927 92 173 2.0 8.0 0.00 0.00 0.00 54 971.7